Location: Bambrugge
(50.9212°N, 3.9299°E)
Time: 21:59:07
(UTC+00:00)

SL-16 R/B - Pass Details

Date: 12 August 2024
Orbit: 842 x 845 km, 71.0° (Epoch: 10 September)

Event Time Altitude Azimuth Distance (km) Brightness Sun altitude
Exits shadow 00:28:13 41° 245° (WSW) 1,215 2.7 -23.7°
Maximum altitude 00:30:03 60° 304° (NW) 962 2.5 -23.6°
Drops below altitude 10° 00:35:41 10° 25° (NNE) 2,477 5.7 -23.4°
Sets 00:38:11 0° 29° (NNE) 3,416 6.6 -23.3°
